Location: Cerroniocc
(13.7547°S, 72.0222°W)
Time: 01:29:04
(UTC+00:00)

CREW DRAGON DEMO-1 DEB - Visible Passes

Search period start: 24 October 2020 00:00
Search period end: 03 November 2020 00:00
Orbit: 362 x 364 km, 51.6° (Epoch: 23 October)

Date Brightness Start Highest point End Pass type
(mag) Time Alt. Az. Time Alt. Az. Time Alt. Az.
29 Oct 5.0 23:54:12 10° S 23:55:36 15° SE 23:55:36 15° SE visible
31 Oct 4.3 00:22:45 10° SW 00:24:44 36° SW 00:24:44 36° SW visible
31 Oct 4.3 23:17:28 10° S 23:19:55 22° SE 23:22:05 11° ENE visible
01 Nov 3.8 23:46:33 10° SW 23:49:25 42° NW 23:51:18 18° N visible
